Home > Time Zones > World Clock > Weather > Spain > Palma > Past weeks

Flag for Spain Weather past 2 weeks in Palma, Majorca, Spain

Now
46 °F

Clear.


Feels Like: 46 °F
Forecast: 53 / 69 °F
Wind: 1 mph from Northeast

Location: Palma De Mallorca / Son San Juan

Current Time: Mar 29, 2015 at 7:22:35 AM

Latest Report: Mar 29, 2015 at 6:30 AM


Visibility: 10 mi

Pressure: 30.15 "Hg

Humidity: 93%

Dew point: 45 °F

Location of PalmaLocation

Historic Weather in Palma — Graph

°F

Palma temperature yesterday

Maximum temperature yesterday: 72 °F (at 5:00 PM)
Minimum temperature yesterday: 48 °F (at 4:30 AM)
Average temperature yesterday: 60 °F

Past Weeks' High & Low Weather Summary

 TemperatureHumidityPressure
High72 °F (Mar 28, 5:00 PM)100% (Mar 15, 1:00 AM)30.24 "Hg (Mar 15, 1:00 AM)
Low32 °F (Mar 17, 5:30 AM)43% (Mar 27, 2:00 PM)29.47 "Hg (Mar 25, 3:00 AM)
Average54 °F81%29.93 "Hg
* Reported Mar 14 5:00 AM — Mar 29 6:00 AM, Palma, Weather by CustomWeather, © 2015

Note: Actual official high and low records may vary slightly from our data, if they occured in-between our weather recording intervals... More about our weather records

Advertising

Palma weather history for previous 24 hours

 ConditionsComfort  
Time TempWeatherWind HumidityBarometerVisibility
6:00 AM
Sun, Mar 29
46 °FClear.1 mph93%30.15 "Hg10 mi
5:30 AM46 °FClear.1 mph100%30.15 "Hg10 mi
5:00 AM45 °FClear.No wind100%30.12 "Hg10 mi
4:30 AM46 °FClear.3 mph93%30.15 "Hg10 mi
4:00 AM48 °FClear.1 mph100%30.15 "Hg10 mi
3:30 AM48 °FClear.2 mph100%30.18 "Hg10 mi
3:00 AM48 °FClear.No wind94%30.18 "Hg10 mi
1:30 AM48 °FClear.1 mph100%30.21 "Hg10 mi
1:00 AM50 °FClear.1 mph94%30.21 "Hg10 mi
12:30 AM50 °FClear.No wind94%30.21 "Hg10 mi
12:00 AM50 °FPassing clouds.3 mph100%30.21 "HgN/A
11:30 PM
Sat, Mar 28
52 °FClear.No wind88%30.21 "Hg10 mi
11:00 PM52 °FClear.No wind94%30.21 "Hg10 mi
10:30 PM55 °FClear.No wind88%30.21 "Hg10 mi
10:00 PM55 °FPassing clouds.3 mph88%30.21 "HgN/A
9:30 PM57 °FClear.2 mph82%30.21 "Hg10 mi
9:00 PM59 °FClear.2 mph77%30.21 "Hg10 mi
8:30 PM61 °FClear.2 mph77%30.21 "Hg10 mi
8:00 PM61 °FClear.1 mph77%30.18 "Hg10 mi
7:30 PM64 °FPassing clouds.8 mph68%30.18 "HgN/A
7:00 PM66 °FPassing clouds.5 mph56%30.18 "HgN/A
6:30 PM68 °FPassing clouds.7 mph53%30.15 "HgN/A
6:00 PM68 °FSunny.10 mph53%30.15 "Hg10 mi
5:30 PM70 °FPassing clouds.9 mph50%30.15 "HgN/A
5:00 PM72 °FPassing clouds.3 mph50%30.15 "HgN/A
4:30 PM70 °FPassing clouds.2 mph50%30.15 "HgN/A
4:00 PM68 °FPassing clouds.8 mph60%30.15 "HgN/A
3:30 PM68 °FPassing clouds.9 mph56%30.15 "HgN/A
3:00 PM68 °FPassing clouds.8 mph56%30.15 "HgN/A
2:30 PM68 °FPassing clouds.9 mph60%30.18 "HgN/A
2:00 PM66 °FPassing clouds.12 mph64%30.18 "HgN/A
1:30 PM66 °FSunny.12 mph64%30.21 "Hg10 mi
1:00 PM66 °FPassing clouds.10 mph60%30.21 "HgN/A
12:30 PM66 °FSunny.9 mph64%30.21 "Hg10 mi
12:00 PM64 °FPassing clouds.9 mph64%30.21 "HgN/A
11:30 AM64 °FPassing clouds.8 mph68%30.21 "HgN/A
11:00 AM64 °FPassing clouds.7 mph68%30.24 "HgN/A
10:30 AM64 °FSunny.2 mph68%30.21 "Hg10 mi
10:00 AM64 °FSunny.No wind68%30.21 "Hg10 mi
9:30 AM63 °FSunny.1 mph68%30.21 "Hg10 mi
9:00 AM61 °FPassing clouds.No wind77%30.18 "HgN/A
8:30 AM57 °FPassing clouds.No wind82%30.18 "HgN/A
8:00 AM54 °FPassing clouds.1 mph88%30.18 "HgN/A
7:30 AM50 °FPassing clouds.5 mph88%30.18 "HgN/A
7:00 AM52 °FPassing clouds.1 mph88%30.15 "HgN/A
Weather by CustomWeather, © 2015

See weather overviewHow to use our weather pages